Regional Weather Roundup
Issued by NWS

Home | Current Version | Previous Version | Graphics & Text | Print | Product List | Glossary Off
Versions: 1 2 3 4 5 6 7 8 9 10 11 12 13 14 15 16 17 18 19 20 21 22 23 24 25 26 27 28 29 30 31 32 33 34 35 36 37 38 39 40 41 42 43 44 45 46 47 48 49 50

000
ASUS43 KTOP 311659
RWRKS

WEATHER ROUNDUP FOR KANSAS
NATIONAL WEATHER SERVICE GOODLAND KS
1200 PM CDT MON AUG 31 2015

NOTE:  "FAIR" INDICATES FEW OR NO CLOUDS BELOW 12,000 FEET WITH NO
SIGNIFICANT WEATHER AND/OR OBSTRUCTIONS TO VISIBILITY.

KSZ001>006-013>018-027>032-041>047-311800-
NORTHWEST KANSAS

CITY           SKY/WX    TMP DP  RH WIND       PRES   REMARKS
GOODLAND       SUNNY     87  53  31 N9        29.98S
HAYS           SUNNY     88  61  40 S16G23    29.94S
HILL CITY      SUNNY     87  58  37 SW9       29.94S
RUSSELL        SUNNY     88  62  41 S17       29.93S
$$

KSZ061>065-074>080-084>089-311800-
SOUTHWEST KANSAS

CITY           SKY/WX    TMP DP  RH WIND       PRES   REMARKS
DODGE CITY     SUNNY     86  54  33 S20       29.97S
ELKHART          N/A     84  53  34 S17         N/A
GARDEN CITY    SUNNY     86  55  34 S15G22    29.95S
GREAT BEND     SUNNY     88  63  42 S16       29.94S
LIBERAL        SUNNY     90  55  31 S16G24    29.99S
$$

KSZ066>073-081>083-090>101-311800-
SOUTHEAST KANSAS

CITY           SKY/WX    TMP DP  RH WIND       PRES   REMARKS
CHANUTE        SUNNY     83  69  62 S9        30.01S
COFFEYVILLE    SUNNY     83  71  67 S10       30.00F
HUTCHINSON     SUNNY     86  67  52 SE13      29.96F
NEWTON         SUNNY     84  66  54 S12       30.00S
PARSONS        SUNNY     82  71  69 S8        30.02S
WICHITA INTL   SUNNY     84  68  58 S9        29.97S
WICHITA JABRA  SUNNY     82  68  62 S8        29.98S
WINFIELD       SUNNY     86  66  51 S12       29.99F
$$

KSZ007>012-019>026-033>040-048>060-102>105-311800-
NORTHEAST KANSAS

CITY           SKY/WX    TMP DP  RH WIND       PRES   REMARKS
CONCORDIA      SUNNY     83  68  60 S15       29.96S
EMPORIA        SUNNY     83  70  64 SE10      29.99S
LAWRENCE       MOSUNNY   85  71  63 SE8       29.99F
MANHATTAN      SUNNY     86  67  52 S13       29.96F
OLATHE IND     SUNNY     83  71  67 S10       30.02S
OLATHE EXE     SUNNY     81  70  69 S9        30.01S
SALINA         SUNNY     88  66  48 SE13      29.94F
TOPEKA BILLARD MOSUNNY   84  69  60 S7        29.98F
TOPEKA FORBES  SUNNY     86  70  58 S7        29.99F
$$



USA.gov is the U.S. government's official web portal to all federal, state and local government web resources and services.